Weather reports worldwide

Advertisment
Grenoble/St.Geoirs, France (7486): temperature & dewpoint: 18.03.2019 17:00:00 - 24.03.2019 17:00:00 (CET)Grenoble/St.Geoirs, France (7486): temperature 5cm: 18.03.2019 17:00:00 - 24.03.2019 17:00:00 (CET)Grenoble/St.Geoirs, France (7486): temperature -20cm & temperature -100cm: 18.03.2019 17:00:00 - 24.03.2019 17:00:00 (CET)Grenoble/St.Geoirs, France (7486): wind speed & gusts: 18.03.2019 17:00:00 - 24.03.2019 17:00:00 (CET)Grenoble/St.Geoirs, France (7486): wind direction: 18.03.2019 17:00:00 - 24.03.2019 17:00:00 (CET)Grenoble/St.Geoirs, France (7486): reduced air pressure: 18.03.2019 17:00:00 - 24.03.2019 17:00:00 (CET)Grenoble/St.Geoirs, France (7486): visibility: 18.03.2019 17:00:00 - 24.03.2019 17:00:00 (CET)Grenoble/St.Geoirs, France (7486): sunshine duration: 18.03.2019 17:00:00 - 24.03.2019 17:00:00 (CET)Grenoble/St.Geoirs, France (7486): precipitation: 18.03.2019 17:00:00 - 24.03.2019 17:00:00 (CET)
Date & Time tt [°C] td [°C] tt 5cm [°C] tt -20cm [°C] tt -100cm [°C] ff [km/h] ff [kn] fx [km/h] fx [kn] dd ppp [hPa] vv [km] sd [min] rr [mm]
24.03.2019 17:00:00 18,1 3,2 20,7 8,6 8,3 11 6 22 12 NNW 1021,3 14 60 0,0
24.03.2019 16:00:00 18,7 2,9 25,1 8,4 8,3 13 7 26 14 NW 1021,6 17 60 0,0
24.03.2019 15:00:00 18,6 2,0 26,0 8,3 8,3 11 6 23 12 NW 1021,9 20 60 0,0
24.03.2019 14:00:00 18,0 -0,8 25,4 8,2 8,3 13 7 23 12 NW 1022,7 18 60 0,0
24.03.2019 13:00:00 17,3 2,5 23,1 8,1 8,3 11 6 21 11 NW 1023,3 16 60 0,0
24.03.2019 12:00:00 16,4 5,0 21,0 8,1 8,3 8 4 18 10 W 1023,9 18 60 0,0
24.03.2019 11:00:00 14,7 3,5 19,7 8,1 8,3 3 2 8 5 WNW 1024,5 31 60 0,0
24.03.2019 10:00:00 12,9 3,5 18,0 8,2 8,3 3 1 7 4 NE 1025,1 19 60 0,0
24.03.2019 09:00:00 10,1 3,4 9,4 8,3 8,3 0 0 9 5 N 1025,8 20 60 0,0
24.03.2019 08:00:00 5,3 2,1 0,4 8,4 8,3 8 5 11 6 E 1026,6 17 60 0,0
24.03.2019 07:00:00 0,9 -1,2 -2,7 8,5 8,3 8 4 10 5 E 1027,2 16 4 0,0
24.03.2019 06:00:00 1,7 -0,7 -2,0 8,6 8,2 6 4 14 7 ESE 1026,7 15 0 0,0
24.03.2019 05:00:00 1,3 -1,3 -1,1 8,6 8,2 11 6 14 7 E 1026,6 17 0 0,0
24.03.2019 04:00:00 1,7 -1,0 -0,7 8,7 8,2 12 7 14 7 E 1026,3 17 0 0,0
24.03.2019 03:00:00 1,4 -1,0 -0,9 8,8 8,2 10 6 12 6 E 1026,5 15 0 0,0
24.03.2019 02:00:00 2,6 0,5 -0,2 8,9 8,2 9 5 13 7 E 1026,5 15 0 0,0
24.03.2019 01:00:00 3,4 0,4 0,8 8,9 8,2 11 6 13 7 E 1026,2 18 0 0,0
24.03.2019 00:00:00 4,5 0,1 1,2 8,9 8,2 8 5 14 7 E 1026,4 16 0 0,0
23.03.2019 23:00:00 6,9 1,6 3,1 8,9 8,2 8 5 15 8 E 1026,0 18 0 0,0
23.03.2019 22:00:00 8,4 1,5 3,9 8,9 8,2 10 5 14 7 SE 1026,0 21 0 0,0
23.03.2019 21:00:00 10,8 1,6 6,4 8,8 8,2 7 4 14 8 SE 1025,9 21 0 0,0
23.03.2019 20:00:00 14,1 1,7 7,5 8,7 8,2 6 4 16 9 NNW 1024,8 28 0 0,0
23.03.2019 19:00:00 14,5 1,7 9,4 8,6 8,2 8 4 25 13 NW 1024,7 32 12 0,0
23.03.2019 18:00:00 17,1 1,9 18,4 8,4 8,2 16 9 31 17 NNW 1024,1 24 60 0,0
23.03.2019 17:00:00 18,3 2,2 20,3 8,2 8,2 21 11 35 19 NNW 1023,9 30 60 0,0
23.03.2019 16:00:00 19,0 2,8 23,9 8,0 8,2 22 12 42 23 NNW 1023,8 25 60 0,0
23.03.2019 15:00:00 18,6 3,6 24,4 7,9 8,2 21 11 31 17 N 1024,4 25 60 0,0
23.03.2019 14:00:00 18,3 3,7 24,8 7,7 8,2 21 12 31 17 NNW 1024,8 19 60 0,0
23.03.2019 13:00:00 18,1 3,5 23,5 7,7 8,2 9 5 16 9 WNW 1025,4 18 60 0,0
23.03.2019 12:00:00 16,5 3,5 21,0 7,7 8,2 5 3 13 7 W 1026,3 13 60 0,0
23.03.2019 11:00:00 15,4 2,5 18,9 7,7 8,2 3 2 11 6 NW 1027,0 20 60 0,0
23.03.2019 10:00:00 13,3 0,6 15,0 7,8 8,2 5 3 15 8 ESE 1027,8 24 60 0,0
23.03.2019 09:00:00 10,8 1,3 12,0 7,9 8,2 10 5 16 9 E 1028,3 27 60 0,0
23.03.2019 08:00:00 5,9 2,7 0,7 8,0 8,2 4 2 15 8 ENE 1028,9 14 60 0,0
23.03.2019 07:00:00 0,7 -1,4 -1,4 8,1 8,2 12 6 16 8 E 1029,6 11 2 0,0
23.03.2019 06:00:00 0,6 -1,5 -1,8 8,1 8,2 9 5 15 8 E 1029,6 11 0 0,0
23.03.2019 05:00:00 -0,4 -2,9 -2,3 8,2 8,2 11 6 14 8 E 1029,8 10 0 0,0
23.03.2019 04:00:00 1,2 -1,5 -1,9 8,3 8,2 6 3 12 7 E 1029,6 14 0 0,0
23.03.2019 03:00:00 1,7 -1,2 -1,3 8,4 8,2 7 4 11 6 ESE 1029,5 12 0 0,0
23.03.2019 02:00:00 2,2 -0,7 -1,3 8,4 8,2 5 3 14 8 E 1029,6 12 0 0,0
23.03.2019 01:00:00 2,7 -0,8 1,0 8,5 8,2 12 6 14 8 E 1029,4 12 0 0,0
23.03.2019 00:00:00 4,4 -0,2 1,1 8,5 8,2 9 5 16 9 ESE 1029,3 14 0 0,0
22.03.2019 23:00:00 5,1 0,5 1,0 8,5 8,2 13 7 17 9 E 1029,1 13 0 0,0
22.03.2019 22:00:00 5,0 0,0 2,8 8,4 8,2 11 6 14 7 E 1029,1 13 0 0,0
22.03.2019 21:00:00 8,9 1,5 4,6 8,4 8,2 9 5 15 8 ESE 1028,2 14 0 0,0
22.03.2019 20:00:00 12,7 0,4 6,8 8,2 8,2 4 2 11 6 E 1027,2 16 0 0,0
22.03.2019 19:00:00 14,9 0,7 9,3 8,0 8,2 6 3 23 12 NW 1026,6 17 16 0,0
22.03.2019 18:00:00 17,3 3,9 19,6 7,8 8,2 9 5 22 12 N 1026,0 14 60 0,0
22.03.2019 17:00:00 18,4 3,4 21,1 7,6 8,2 16 8 22 12 N 1025,8 19 60 0,0
22.03.2019 16:00:00 19,3 1,7 25,0 7,5 8,2 10 6 20 11 NNE 1026,2 20 60 0,0
22.03.2019 15:00:00 19,6 0,6 27,1 7,3 8,2 8 4 16 9 N 1026,6 26 60 0,0
22.03.2019 14:00:00 19,2 3,4 25,7 7,2 8,2 4 2 14 8 W 1027,0 21 60 0,0
22.03.2019 13:00:00 17,0 1,4 20,9 7,1 8,2 5 3 17 9 NNW 1028,1 18 60 0,0
22.03.2019 12:00:00 15,3 -0,1 17,7 7,1 8,2 13 7 26 14 E 1028,8 16 60 0,0
22.03.2019 11:00:00 13,3 0,6 14,7 7,1 8,2 19 10 31 17 E 1029,7 15 60 0,0
22.03.2019 10:00:00 11,4 0,5 11,5 7,2 8,2 20 11 30 16 E 1029,9 15 60 0,0
22.03.2019 09:00:00 8,8 1,0 8,8 7,4 8,2 24 13 32 17 E 1030,4 15 60 0,0
22.03.2019 08:00:00 3,8 0,3 -2,1 7,4 8,2 5 3 8 4 E 1031,4 12 60 0,0
22.03.2019 07:00:00 -1,1 -3,1 -5,6 7,5 8,2 5 3 11 6 SSE 1031,9 11 0 0,0
22.03.2019 06:00:00 -0,2 -3,1 -5,3 7,6 8,2 5 3 11 6 ESE 1031,1 12 0 0,0
22.03.2019 05:00:00 0,7 -2,5 -4,4 7,7 8,2 5 3 15 8 ENE 1030,9 11 0 0,0
22.03.2019 04:00:00 0,2 -2,8 -3,9 7,8 8,2 10 5 18 10 E 1031,2 11 0 0,0
22.03.2019 03:00:00 0,2 -2,0 -4,1 7,9 8,2 10 5 13 7 NNE 1031,4 9 0 0,0
22.03.2019 02:00:00 0,1 -2,3 -3,3 7,9 8,2 11 6 13 7 E 1031,7 7 0 0,0
22.03.2019 01:00:00 1,4 -0,7 -2,6 8,0 8,2 4 2 14 8 N 1031,5 7 0 0,0
22.03.2019 00:00:00 0,4 -2,5 -2,6 8,0 8,2 7 4 11 6 ESE 1031,7 8 0 0,0
21.03.2019 23:00:00 2,6 -0,7 -1,0 8,0 8,2 8 4 10 5 E 1031,3 8 0 0,0
21.03.2019 22:00:00 2,3 -1,3 -0,2 8,0 8,2 10 5 13 7 ESE 1031,3 8 0 0,0
21.03.2019 21:00:00 4,9 -0,3 0,9 7,9 8,2 10 5 16 9 ESE 1030,6 11 0 0,0
21.03.2019 20:00:00 7,7 -0,5 1,9 7,8 8,2 5 3 13 7 ENE 1029,9 14 0 0,0
21.03.2019 19:00:00 9,4 0,8 5,0 7,7 8,2 7 4 12 6 N 1029,4 15 15 0,0
21.03.2019 18:00:00 12,2 1,2 14,9 7,5 8,2 8 4 21 11 N 1028,5 15 60 0,0
21.03.2019 17:00:00 13,2 0,6 16,2 7,3 8,2 12 7 23 12 NNW 1028,1 9 60 0,0
21.03.2019 16:00:00 13,6 0,2 20,4 7,1 8,2 11 6 21 11 NW 1028,1 15 60 0,0
21.03.2019 15:00:00 13,4 -0,3 21,0 7,0 8,2 6 3 20 11 N 1028,3 15 60 0,0
21.03.2019 14:00:00 12,4 -0,5 19,7 6,9 8,2 12 6 23 13 N 1028,8 19 60 0,0
21.03.2019 13:00:00 11,7 0,4 18,3 6,8 8,2 14 8 26 14 N 1029,3 20 60 0,0
21.03.2019 12:00:00 10,7 -0,2 16,4 6,9 8,2 8 4 18 10 NNE 1029,6 20 60 0,0
21.03.2019 11:00:00 9,6 -0,6 13,8 6,9 8,2 5 3 15 8 NW 1030,2 19 60 0,0
21.03.2019 10:00:00 7,5 -1,2 9,8 7,0 8,2 3 2 12 6 NE 1030,9 20 60 0,0
21.03.2019 09:00:00 4,5 -0,9 5,5 7,1 8,2 6 3 9 5 SSE 1031,5 17 60 0,0
21.03.2019 08:00:00 0,8 -2,4 -4,4 7,2 8,2 4 2 11 6 E 1032,2 10 60 0,0
21.03.2019 07:00:00 -3,7 -6,0 -6,1 7,4 8,3 8 5 11 6 E 1032,5 9 0 0,0
21.03.2019 06:00:00 -3,8 -6,4 -6,7 7,4 8,3 9 5 11 6 ESE 1032,3 11 0 0,0
21.03.2019 05:00:00 -2,4 -4,6 -5,3 7,5 8,2 6 3 11 6 E 1031,8 11 0 0,0
21.03.2019 04:00:00 -3,0 -5,5 -5,5 7,6 8,3 10 5 13 7 E 1031,6 12 0 0,0
21.03.2019 03:00:00 -1,6 -4,1 -5,4 7,7 8,3 8 4 11 6 E 1031,6 12 0 0,0
21.03.2019 02:00:00 -0,7 -3,1 -4,8 7,7 8,3 8 4 13 7 E 1031,8 11 0 0,0
21.03.2019 01:00:00 0,2 -4,4 -4,1 7,8 8,3 7 4 9 5 SE 1031,8 17 0 0,0
21.03.2019 00:00:00 1,9 -3,0 -3,8 7,8 8,3 4 2 14 8 SSW 1031,1 17 0 0,0
20.03.2019 23:00:00 1,2 -2,2 -3,5 7,9 8,3 3 2 11 6 NNW 1031,3 18 0 0,0
20.03.2019 22:00:00 1,9 -2,2 -2,0 7,8 8,3 6 4 11 6 ESE 1031,1 21 0 0,0
20.03.2019 21:00:00 4,4 -2,0 -0,8 7,8 8,3 6 3 14 8 ESE 1030,8 22 0 0,0
20.03.2019 20:00:00 6,4 -1,3 3,1 7,7 8,3 10 5 27 14 N 1030,2 23 0 0,0
20.03.2019 19:00:00 9,0 -1,4 6,3 7,6 8,3 16 9 29 16 NNW 1029,5 27 14 0,0
20.03.2019 18:00:00 11,1 -1,0 11,2 7,4 8,3 20 11 33 18 NNW 1028,7 16 55 0,0
20.03.2019 17:00:00 11,8 -0,4 12,8 7,2 8,3 19 11 32 17 NNW 1028,3 32 50 0,0
20.03.2019 16:00:00 11,5 -1,7 16,2 7,1 8,3 10 6 38 20 N 1028,6 29 57 0,0
20.03.2019 15:00:00 11,3 -1,5 17,5 7,0 8,3 15 8 34 19 NNW 1029,2 20 60 0,0
20.03.2019 14:00:00 10,9 -1,5 17,8 6,9 8,3 14 7 29 16 NNW 1029,6 18 60 0,0
20.03.2019 13:00:00 9,6 -2,1 15,8 6,9 8,3 10 5 30 16 N 1030,3 19 60 0,0
20.03.2019 12:00:00 9,0 -0,3 13,7 6,9 8,3 16 9 32 17 N 1030,4 20 60 0,0
20.03.2019 11:00:00 8,1 -0,7 10,5 7,0 8,3 16 9 26 14 N 1030,6 20 60 0,0
20.03.2019 10:00:00 4,8 -0,8 9,8 7,1 8,3 10 5 15 8 W 1031,0 17 60 0,0
20.03.2019 09:00:00 3,1 -0,9 4,4 7,2 8,3 4 2 9 5 SSW 1031,3 19 60 0,0
20.03.2019 08:00:00 0,0 -2,7 -6,1 7,3 8,3 5 3 9 5 ESE 1031,6 15 56 0,0
20.03.2019 07:00:00 -4,0 -7,1 -8,6 7,4 8,3 5 3 8 4 SE 1031,8 19 0 0,0
20.03.2019 06:00:00 -3,1 -4,8 -8,0 7,5 8,3 6 3 9 5 E 1031,1 20 0 0,0
20.03.2019 05:00:00 -2,2 -5,2 -7,8 7,7 8,4 4 2 8 4 ESE 1030,9 22 0 0,0
20.03.2019 04:00:00 -2,1 -4,6 -7,0 7,7 8,3 7 4 10 5 E 1030,7 25 0 0,0
20.03.2019 03:00:00 -1,5 -3,7 -6,7 7,8 8,3 5 3 10 6 ESE 1030,6 24 0 0,0
20.03.2019 02:00:00 -1,7 -5,2 -5,4 7,9 8,4 8 4 11 6 ESE 1030,7 26 0 0,0
20.03.2019 01:00:00 -0,6 -4,0 -4,7 7,9 8,3 6 3 11 6 SSE 1030,4 25 0 0,0
20.03.2019 00:00:00 0,7 -3,4 -3,9 8,0 8,4 6 4 13 7 SSE 1030,0 27 0 0,0
19.03.2019 23:00:00 2,4 -3,1 -2,1 8,0 8,3 4 2 18 10 NE 1029,2 24 0 0,0
19.03.2019 22:00:00 4,1 -2,1 1,3 8,0 8,3 14 8 24 13 N 1028,2 42 0 0,0
19.03.2019 21:00:00 5,5 -1,4 2,9 7,9 8,3 16 9 26 14 N 1027,8 38 0 0,0
19.03.2019 20:00:00 6,6 -0,9 4,9 7,9 8,4 19 10 34 18 NNW 1027,2 29 0 0,0
19.03.2019 19:00:00 7,5 -0,5 6,0 7,8 8,4 18 10 44 24 NNW 1026,6 29 14 0,0
19.03.2019 18:00:00 9,2 0,1 8,9 7,7 8,4 30 16 47 25 NNW 1025,5 32 26 0,0
19.03.2019 17:00:00 9,7 -0,2 9,9 7,6 8,4 33 18 48 26 NNW 1024,6 35 21 0,0
19.03.2019 16:00:00 10,2 1,0 9,7 7,5 8,3 26 14 45 25 NNW 1024,4 20 28 0,0
19.03.2019 15:00:00 9,1 1,0 10,4 7,3 8,3 23 12 42 23 NNW 1024,9 32 27 0,0
19.03.2019 14:00:00 10,0 0,8 11,2 7,3 8,4 21 11 34 18 NNW 1024,9 40 22 0,0
19.03.2019 13:00:00 9,1 0,8 12,4 7,2 8,4 16 9 31 17 NNW 1025,5 25 48 0,0
19.03.2019 12:00:00 7,7 0,4 11,7 7,3 8,4 13 7 22 12 N 1025,8 27 54 0,0
19.03.2019 11:00:00 6,8 1,5 11,6 7,3 8,4 15 8 23 13 NW 1025,9 20 60 0,0
19.03.2019 10:00:00 5,8 0,7 9,1 7,4 8,4 7 4 16 9 N 1026,0 19 57 0,0
19.03.2019 09:00:00 4,1 1,1 7,5 7,5 8,4 9 5 21 11 NNE 1025,9 19 60 0,0
19.03.2019 08:00:00 1,3 -0,2 -3,1 7,6 8,4 2 1 9 5 NW 1026,0 15 54 0,0
19.03.2019 07:00:00 -1,1 -3,1 -3,4 7,7 8,4 6 3 19 10 SE 1025,8 14 0 0,0
19.03.2019 06:00:00 1,1 -0,1 -3,6 7,8 8,4 7 4 16 9 E 1025,0 19 0 0,0
19.03.2019 05:00:00 0,4 -1,4 -3,7 7,9 8,3 6 3 12 6 SW 1024,9 20 0 0,0
19.03.2019 04:00:00 1,5 -0,3 -3,8 7,9 8,4 5 3 10 5 NNW 1024,5 13 0 0,0
19.03.2019 03:00:00 0,6 -2,3 -2,8 8,0 8,3 3 2 9 5 SE 1024,4 21 0 0,0
19.03.2019 02:00:00 2,3 -0,8 -1,1 8,1 8,4 7 4 21 11 NE 1024,3 26 0 0,0
19.03.2019 01:00:00 3,5 -0,3 -2,7 8,1 8,3 6 3 12 6 NNE 1024,2 35 0 0,0
19.03.2019 00:00:00 1,2 -2,2 -2,6 8,2 8,3 2 1 9 5 ESE 1024,8 20 0 0,0
18.03.2019 23:00:00 2,3 -1,0 -1,5 8,3 8,3 3 2 13 7 NE 1025,0 29 0 0,0
18.03.2019 22:00:00 3,0 -0,8 -2,4 8,3 8,4 5 3 13 7 ENE 1024,9 40 0 0,0
18.03.2019 21:00:00 2,6 -1,2 -0,7 8,3 8,3 6 3 18 10 N 1024,8 38 0 0,0
18.03.2019 20:00:00 4,6 0,2 3,2 8,3 8,3 13 7 24 13 NNE 1024,1 43 0 0,0
18.03.2019 19:00:00 5,5 0,1 4,0 8,2 8,3 15 8 26 14 N 1023,9 49 14 0,0
18.03.2019 18:00:00 7,0 -0,2 6,7 8,2 8,3 16 9 33 18 N 1023,2 44 14 0,0
18.03.2019 17:00:00 7,4 0,4 8,0 8,1 8,3 24 13 35 19 NNW 1022,8 49 4 0,0

tt = temperature
td = dewpoint
tt 5cm = temperature 5cm
tt -20cm = temperature -20cm
tt -100cm = temperature -100cm
ff = wind speed
fx = gusts
dd = wind direction
ppp = reduced air pressure
vv = visibility
sd = sunshine duration
rr = precipitation

Next stations